Location: Coffee Ditch
(40.9640°N, 122.7500°W)
Time: 07:44:54
(UTC+00:00)

SL-16 R/B - Pass Details

Date: 08 September 2024
Orbit: 842 x 845 km, 71.0° (Epoch: 05 October)

Event Time Altitude Azimuth Distance (km) Brightness Sun altitude
Rises 12:54:57 0° 324° (NW) 3,411 5.2 -10.1°
Reaches altitude 10° 12:57:44 10° 313° (NW) 2,471 4.3 -9.6°
Maximum altitude 13:02:23 27° 258° (WSW) 1,579 3.1 -8.8°
Drops below altitude 10° 13:07:01 10° 202° (SSW) 2,457 4.3 -7.9°
Sets 13:09:47 0° 191° (S) 3,387 5.1 -7.4°
